W7BTL Weather Reports


time (UTC)temp
C
wind
direction
speed
KPH
gust
KPH
rain 1hr
cm
rain 24hr
cm
rain mn
cm
humidity
%
barometer
mb
20260508002419 25 205 0.0 0.0 0.00 0.00 0.00 52 1013.5
20260508001915 25 205 0.0 0.0 0.00 0.00 0.00 51 1013.6
20260508001411 25 209 0.0 0.0 0.00 0.00 0.00 51 1013.7
20260508000908 25 217 0.0 0.0 0.00 0.00 0.00 50 1013.6
20260508000405 25 225 0.0 0.0 0.00 0.00 0.00 50 1013.3
20260507235900 25 226 1.6 1.6 0.00 0.00 0.00 49 1013.6
20260507235358 25 225 0.0 0.0 0.00 0.00 0.00 48 1013.4
20260507234855 25 225 1.6 1.6 0.00 0.00 0.00 49 1013.5
20260507234351 26 225 0.0 1.6 0.00 0.00 0.00 48 1013.5
20260507233848 26 230 0.0 0.0 0.00 0.00 0.00 48 1013.6
20260507233345 26 232 3.2 3.2 0.00 0.00 0.00 47 1013.6
20260507232843 26 200 1.6 1.6 0.00 0.00 0.00 46 1013.6
20260507232339 27 199 0.0 0.0 0.00 0.00 0.00 46 1013.6
20260507231837 27 199 1.6 1.6 0.00 0.00 0.00 45 1013.6
20260507231333 27 203 0.0 1.6 0.00 0.00 0.00 44 1013.6
20260507230829 28 203 1.6 3.2 0.00 0.00 0.00 43 1013.4
20260507230327 29 218 3.2 3.2 0.00 0.00 0.00 41 1013.6
20260507225827 30 166 0.0 0.0 0.00 0.00 0.00 39 1013.6
20260507225323 31 166 1.6 1.6 0.00 0.00 0.00 38 1013.5
20260507224820 32 196 1.6 1.6 0.00 0.00 0.00 35 1013.7
20260507224317 32 186 1.6 1.6 0.00 0.00 0.00 35 1013.8
20260507223813 33 209 1.6 1.6 0.00 0.00 0.00 34 1013.6
20260507223309 33 131 0.0 0.0 0.00 0.00 0.00 34 1013.7
20260507222806 33 174 1.6 1.6 0.00 0.00 0.00 32 1013.9
20260507222305 34 197 1.6 1.6 0.00 0.00 0.00 32 1013.9
20260507221800 34 128 1.6 1.6 0.00 0.00 0.00 31 1013.9
20260507221256 33 193 0.0 0.0 0.00 0.00 0.00 33 1014.1
20260507220752 33 236 3.2 3.2 0.00 0.00 0.00 33 1013.9
20260507220251 34 256 1.6 1.6 0.00 0.00 0.00 32 1014.1
20260507215746 33 171 0.0 0.0 0.00 0.00 0.00 33 1014.1
20260507215244 33 197 3.2 3.2 0.00 0.00 0.00 33 1014.1
20260507214741 32 177 0.0 0.0 0.00 0.00 0.00 34 1014.1
20260507214238 32 204 1.6 1.6 0.00 0.00 0.00 34 1014.1
20260507213733 32 171 1.6 1.6 0.00 0.00 0.00 34 1014.4
20260507213231 32 218 1.6 1.6 0.00 0.00 0.00 35 1014.1
20260507212727 33 262 1.6 1.6 0.00 0.00 0.00 34 1014.3
20260507212223 32 180 1.6 1.6 0.00 0.00 0.00 34 1014.3
20260507211720 32 219 3.2 3.2 0.00 0.00 0.00 35 1014.3
20260507211216 31 237 1.6 1.6 0.00 0.00 0.00 37 1014.5
20260507210714 31 210 1.6 1.6 0.00 0.00 0.00 37 1014.4
20260507210210 30 167 3.2 3.2 0.00 0.00 0.00 37 1014.5
20260507205707 31 290 1.6 1.6 0.00 0.00 0.00 37 1014.6
20260507205203 30 255 3.2 3.2 0.00 0.00 0.00 37 1014.5
20260507204659 30 209 1.6 3.2 0.00 0.00 0.00 38 1014.8
20260507204158 30 251 1.6 1.6 0.00 0.00 0.00 37 1014.7
20260507203655 29 231 1.6 1.6 0.00 0.00 0.00 39 1014.7
20260507203152 29 294 3.2 3.2 0.00 0.00 0.00 40 1014.7
20260507202648 29 336 3.2 3.2 0.00 0.00 0.00 40 1014.7
20260507202144 29 243 1.6 3.2 0.00 0.00 0.00 40 1014.8
20260507201639 30 277 3.2 3.2 0.00 0.00 0.00 40 1014.7
20260507201137 29 226 1.6 1.6 0.00 0.00 0.00 40 1015.0
20260507200632 29 259 3.2 3.2 0.00 0.00 0.00 40 1015.0
20260507200129 30 118 1.6 1.6 0.00 0.00 0.00 39 1015.0
20260507195626 30 216 1.6 1.6 0.00 0.00 0.00 39 1015.0
20260507195123 30 258 3.2 3.2 0.00 0.00 0.00 38 1015.1
20260507194620 31 285 1.6 3.2 0.00 0.00 0.00 38 1015.2
20260507194115 31 243 3.2 3.2 0.00 0.00 0.00 35 1015.2
20260507193612 31 235 1.6 1.6 0.00 0.00 0.00 36 1015.1
20260507193109 31 206 1.6 1.6 0.00 0.00 0.00 36 1015.2
20260507192605 31 232 0.0 0.0 0.00 0.00 0.00 35 1015.3
20260507192103 31 12 0.0 0.0 0.00 0.00 0.00 36 1015.4
20260507191558 30 98 1.6 1.6 0.00 0.00 0.00 38 1015.4
20260507191055 30 162 1.6 1.6 0.00 0.00 0.00 38 1015.4
20260507190552 29 189 1.6 1.6 0.00 0.00 0.00 39 1015.4
20260507190051 30 260 1.6 1.6 0.00 0.00 0.00 39 1015.6
20260507185549 30 272 1.6 1.6 0.00 0.00 0.00 37 1015.8
20260507185045 30 236 1.6 1.6 0.00 0.00 0.00 38 1015.6
20260507184544 30 245 3.2 3.2 0.00 0.00 0.00 38 1015.7
20260507184041 29 242 0.0 0.0 0.00 0.00 0.00 38 1015.6
20260507183537 29 236 1.6 1.6 0.00 0.00 0.00 39 1015.8
20260507183034 31 223 1.6 3.2 0.00 0.00 0.00 36 1015.8
20260507182530 32 196 1.6 1.6 0.00 0.00 0.00 34 1015.9
20260507182026 32 209 1.6 1.6 0.00 0.00 0.00 34 1015.8
20260507181524 31 199 0.0 0.0 0.00 0.00 0.00 35 1015.8
20260507181019 30 221 0.0 0.0 0.00 0.00 0.00 36 1015.8
20260507180516 32 186 0.0 0.0 0.00 0.00 0.00 33 1015.9
20260507180013 32 181 0.0 1.6 0.00 0.00 0.00 34 1016.0
20260507175509 31 181 0.0 0.0 0.00 0.00 0.00 34 1016.0
20260507175007 31 183 0.0 0.0 0.00 0.00 0.00 35 1015.9
20260507174504 31 181 0.0 0.0 0.00 0.00 0.00 35 1016.1
20260507174002 30 199 0.0 0.0 0.00 0.00 0.00 37 1016.2
20260507173458 30 200 1.6 1.6 0.00 0.00 0.00 36 1016.2
20260507172955 30 179 0.0 0.0 0.00 0.00 0.00 36 1016.2
20260507172451 29 206 0.0 0.0 0.00 0.00 0.00 37 1016.1
20260507171948 30 198 0.0 0.0 0.00 0.00 0.00 37 1016.1
20260507171444 30 198 0.0 0.0 0.00 0.00 0.00 36 1016.1
20260507170941 31 196 1.6 1.6 0.00 0.00 0.00 35 1016.1
20260507170438 30 209 1.6 1.6 0.00 0.00 0.00 37 1016.1
20260507165934 28 219 0.0 0.0 0.00 0.00 0.00 40 1016.0
20260507165430 27 222 0.0 0.0 0.00 0.00 0.00 43 1016.4
20260507164926 27 221 0.0 0.0 0.00 0.00 0.00 43 1016.2
20260507164423 29 219 0.0 0.0 0.00 0.00 0.00 41 1016.3
20260507163920 30 143 0.0 0.0 0.00 0.00 0.00 39 1016.3
20260507163418 31 165 1.6 1.6 0.00 0.00 0.00 36 1016.3
20260507162914 30 164 0.0 0.0 0.00 0.00 0.00 37 1016.3
20260507162410 29 165 0.0 0.0 0.00 0.00 0.00 38 1016.3
20260507161908 28 173 0.0 0.0 0.00 0.00 0.00 41 1016.6
20260507161403 30 172 0.0 0.0 0.00 0.00 0.00 38 1016.5
20260507160900 29 172 0.0 0.0 0.00 0.00 0.00 39 1016.7
20260507160356 28 172 0.0 0.0 0.00 0.00 0.00 41 1016.5
20260507155852 28 173 0.0 0.0 0.00 0.00 0.00 43 1016.6
20260507155348 28 172 0.0 0.0 0.00 0.00 0.00 41 1016.4
20260507154845 28 172 0.0 0.0 0.00 0.00 0.00 42 1016.7
20260507154342 28 172 0.0 0.0 0.00 0.00 0.00 43 1016.7
20260507153839 27 172 0.0 0.0 0.00 0.00 0.00 44 1016.5
20260507153536 26 172 0.0 0.0 0.00 0.00 0.00 47 1016.7
20260507153336 26 172 0.0 0.0 0.00 0.00 0.00 47 1016.7
20260507153120 25 172 0.0 0.0 0.00 0.00 0.00 49 1016.3
20260507152849 24 172 0.0 0.0 0.00 0.00 0.00 52 1016.4
20260507152832 25 172 0.0 0.0 0.00 0.00 0.00 49 1016.3
20260507152328 24 172 0.0 0.0 0.00 0.00 0.00 52 1016.4
20260507152010 22 172 0.0 0.0 0.00 0.00 0.00 57 1016.6
20260507151825 22 172 0.0 0.0 0.00 0.00 0.00 57 1016.6
20260507151321 21 173 0.0 0.0 0.00 0.00 0.00 61 1016.8
20260507150818 21 176 0.0 0.0 0.00 0.00 0.00 64 1016.7
20260507150315 20 176 0.0 0.0 0.00 0.00 0.00 67 1016.7
20260507145811 19 176 0.0 0.0 0.00 0.00 0.00 71 1016.8
20260507145308 18 176 0.0 0.0 0.00 0.00 0.00 73 1016.6
20260507144805 18 176 0.0 0.0 0.00 0.00 0.00 75 1016.6
20260507144302 17 176 0.0 0.0 0.00 0.00 0.00 76 1016.5
20260507143758 17 176 0.0 0.0 0.00 0.00 0.00 81 1016.5
20260507143256 16 176 0.0 0.0 0.00 0.00 0.00 83 1016.5
20260507142751 16 176 0.0 0.0 0.00 0.00 0.00 86 1016.5
20260507142248 15 176 0.0 0.0 0.00 0.00 0.00 90 1016.6
20260507141744 15 176 0.0 0.0 0.00 0.00 0.00 92 1016.3
20260507141242 14 176 0.0 0.0 0.00 0.00 0.00 94 1016.6
20260507140738 13 176 0.0 0.0 0.00 0.00 0.00 96 1016.2
20260507140236 13 176 0.0 0.0 0.00 0.00 0.00 96 1016.2
20260507135732 13 176 0.0 0.0 0.00 0.00 0.00 96 1016.4
20260507135230 12 175 0.0 0.0 0.00 0.00 0.00 95 1016.2
20260507134726 12 175 0.0 0.0 0.00 0.00 0.00 95 1016.1
20260507134222 12 175 0.0 0.0 0.00 0.00 0.00 95 1016.1
20260507133718 12 175 0.0 0.0 0.00 0.00 0.00 95 1016.0
20260507133215 12 175 0.0 0.0 0.00 0.00 0.00 95 1015.9
20260507132713 12 175 0.0 0.0 0.00 0.00 0.00 94 1016.1
20260507132209 12 175 0.0 0.0 0.00 0.00 0.00 94 1016.0
20260507131706 12 175 0.0 0.0 0.00 0.00 0.00 94 1015.9
20260507131204 12 175 0.0 0.0 0.00 0.00 0.00 94 1015.9
20260507130700 12 175 0.0 0.0 0.00 0.00 0.00 94 1015.8
20260507130158 12 175 0.0 0.0 0.00 0.00 0.00 94 1015.7
20260507125656 12 175 0.0 0.0 0.00 0.00 0.00 94 1015.7
20260507125154 12 175 0.0 0.0 0.00 0.00 0.00 94 1015.8
20260507124649 12 175 0.0 0.0 0.00 0.00 0.00 94 1015.6
20260507124147 12 175 0.0 0.0 0.00 0.00 0.00 93 1015.7
20260507123646 12 175 0.0 0.0 0.00 0.00 0.00 93 1015.9
20260507123142 12 175 0.0 0.0 0.00 0.00 0.00 93 1015.9
20260507122637 12 175 0.0 0.0 0.00 0.00 0.00 93 1015.4
20260507122133 12 175 0.0 0.0 0.00 0.00 0.00 93 1015.7
20260507121629 12 175 0.0 0.0 0.00 0.00 0.00 93 1015.7
20260507121126 12 175 0.0 0.0 0.00 0.00 0.00 93 1015.8
20260507120622 12 175 0.0 0.0 0.00 0.00 0.00 93 1015.8
20260507120119 12 175 0.0 0.0 0.00 0.00 0.00 93 1015.9
20260507115615 12 175 0.0 0.0 0.00 0.00 0.00 93 1015.9
20260507115111 12 175 0.0 0.0 0.00 0.00 0.00 94 1015.9
20260507114607 12 175 0.0 0.0 0.00 0.00 0.00 93 1015.8
20260507114104 12 175 0.0 0.0 0.00 0.00 0.00 93 1015.9
20260507113601 12 175 0.0 0.0 0.00 0.00 0.00 93 1015.9
20260507113059 12 175 0.0 0.0 0.00 0.00 0.00 93 1015.7
20260507112556 12 175 0.0 0.0 0.00 0.00 0.00 93 1015.8
20260507112053 12 175 0.0 0.0 0.00 0.00 0.00 92 1016.0
20260507111550 12 175 0.0 0.0 0.00 0.00 0.00 92 1016.0
20260507111047 12 175 0.0 0.0 0.00 0.00 0.00 92 1016.0
20260507110543 12 175 0.0 0.0 0.00 0.00 0.00 92 1016.0
20260507110039 12 175 0.0 0.0 0.00 0.00 0.00 92 1015.9
20260507105537 12 175 0.0 0.0 0.00 0.00 0.00 92 1016.1
20260507105032 12 175 0.0 0.0 0.00 0.00 0.00 92 1015.9
20260507104530 12 175 0.0 0.0 0.00 0.00 0.00 92 1016.1
20260507104026 13 175 0.0 0.0 0.00 0.00 0.00 92 1016.3
20260507103523 13 175 0.0 0.0 0.00 0.00 0.00 91 1016.2
20260507103019 13 175 0.0 0.0 0.00 0.00 0.00 91 1016.0
20260507102516 13 175 0.0 0.0 0.00 0.00 0.00 91 1016.1
20260507102012 13 175 0.0 0.0 0.00 0.00 0.00 90 1016.3
20260507101507 13 175 0.0 0.0 0.00 0.00 0.00 90 1016.3
20260507101004 13 175 0.0 0.0 0.00 0.00 0.00 90 1016.2
20260507100501 13 175 0.0 0.0 0.00 0.00 0.00 90 1016.1
20260507095959 13 175 0.0 0.0 0.00 0.00 0.00 90 1016.3
20260507095457 13 175 0.0 0.0 0.00 0.00 0.00 90 1016.3
20260507094954 13 175 0.0 0.0 0.00 0.00 0.00 90 1016.5
20260507094450 13 175 0.0 0.0 0.00 0.00 0.00 90 1016.4
20260507093947 13 175 0.0 0.0 0.00 0.00 0.00 90 1016.5
20260507093444 13 175 0.0 0.0 0.00 0.00 0.00 90 1016.5
20260507092943 13 175 0.0 0.0 0.00 0.00 0.00 90 1016.5
20260507092438 13 175 0.0 0.0 0.00 0.00 0.00 90 1016.5
20260507091936 13 175 0.0 0.0 0.00 0.00 0.00 90 1016.4
20260507091432 13 175 0.0 0.0 0.00 0.00 0.00 90 1016.7
20260507090928 13 175 0.0 0.0 0.00 0.00 0.00 89 1016.7
20260507090424 13 175 0.0 0.0 0.00 0.00 0.00 89 1016.7
20260507085921 13 175 0.0 0.0 0.00 0.00 0.00 90 1016.7
20260507085418 13 175 0.0 0.0 0.00 0.00 0.00 89 1016.7
20260507084915 13 175 0.0 0.0 0.00 0.00 0.00 90 1016.8
20260507084412 13 175 0.0 0.0 0.00 0.00 0.00 90 1017.0
20260507083909 13 175 0.0 0.0 0.00 0.00 0.00 90 1016.9
20260507083405 13 175 0.0 0.0 0.00 0.00 0.00 89 1017.0
20260507082902 13 175 0.0 0.0 0.00 0.00 0.00 89 1016.8
20260507082357 13 175 0.0 0.0 0.00 0.00 0.00 89 1017.1
20260507081855 13 175 0.0 0.0 0.00 0.00 0.00 88 1016.9
20260507081351 14 175 0.0 0.0 0.00 0.00 0.00 88 1017.1
20260507080848 14 175 0.0 0.0 0.00 0.00 0.00 88 1017.2
20260507080344 14 175 0.0 0.0 0.00 0.00 0.00 88 1017.1
20260507075839 14 175 0.0 0.0 0.00 0.00 0.00 87 1017.2
20260507075335 14 175 0.0 0.0 0.00 0.00 0.00 87 1017.1
20260507074832 14 175 0.0 0.0 0.00 0.00 0.00 87 1017.3
20260507074330 14 175 0.0 0.0 0.00 0.00 0.00 87 1017.3
20260507073827 14 175 0.0 0.0 0.00 0.00 0.00 87 1017.3
20260507073323 15 175 0.0 0.0 0.00 0.00 0.00 87 1017.2
20260507072821 15 175 0.0 0.0 0.00 0.00 0.00 87 1017.4
20260507072318 15 175 0.0 0.0 0.00 0.00 0.00 86 1017.4
20260507071815 15 175 0.0 0.0 0.00 0.00 0.00 86 1017.3
20260507071312 15 175 0.0 0.0 0.00 0.00 0.00 85 1017.2
20260507070808 15 175 0.0 0.0 0.00 0.00 0.00 85 1017.3
20260507070306 15 175 0.0 0.0 0.00 0.00 0.00 84 1017.5
20260507065802 15 175 0.0 0.0 0.00 0.00 0.00 84 1017.3
20260507065259 15 175 0.0 0.0 0.00 0.00 0.00 84 1017.4
20260507064756 15 175 0.0 0.0 0.00 0.00 0.00 83 1017.2
20260507064255 15 175 0.0 0.0 0.00 0.00 0.00 83 1017.4
20260507063752 15 175 0.0 0.0 0.00 0.00 0.00 83 1017.1
20260507063249 15 175 0.0 0.0 0.00 0.00 0.00 82 1017.4
20260507062746 15 175 0.0 0.0 0.00 0.00 0.00 82 1017.5
20260507062243 15 175 0.0 0.0 0.00 0.00 0.00 81 1017.3
20260507061741 15 175 0.0 0.0 0.00 0.00 0.00 80 1017.4
20260507061238 15 175 0.0 0.0 0.00 0.00 0.00 80 1017.3
20260507060737 15 175 0.0 0.0 0.00 0.00 0.00 80 1017.3
20260507060233 15 175 0.0 0.0 0.00 0.00 0.00 79 1017.5
20260507055729 16 175 0.0 0.0 0.00 0.00 0.00 79 1017.6
20260507055225 16 175 0.0 0.0 0.00 0.00 0.00 79 1017.5
20260507054721 16 175 0.0 0.0 0.00 0.00 0.00 79 1017.5
20260507054218 15 173 0.0 0.0 0.00 0.00 0.00 80 1017.6
20260507053716 16 173 0.0 0.0 0.00 0.00 0.00 80 1017.4
20260507053213 16 173 0.0 0.0 0.00 0.00 0.00 81 1017.5
20260507052712 16 173 0.0 0.0 0.00 0.00 0.00 80 1017.5
20260507052207 16 173 0.0 0.0 0.00 0.00 0.00 80 1017.5
20260507051706 16 173 0.0 0.0 0.00 0.00 0.00 80 1017.3
20260507051202 16 173 0.0 0.0 0.00 0.00 0.00 79 1017.4
20260507050659 16 173 0.0 0.0 0.00 0.00 0.00 78 1017.5
20260507050156 16 173 0.0 0.0 0.00 0.00 0.00 78 1017.4
20260507045652 16 173 0.0 0.0 0.00 0.00 0.00 77 1017.4
20260507045149 16 173 0.0 0.0 0.00 0.00 0.00 77 1017.4
20260507044646 16 173 0.0 0.0 0.00 0.00 0.00 76 1017.3
20260507044143 16 173 0.0 0.0 0.00 0.00 0.00 76 1017.4
20260507043639 16 173 0.0 0.0 0.00 0.00 0.00 75 1017.3
20260507043136 16 173 0.0 0.0 0.00 0.00 0.00 75 1017.2
20260507042633 16 174 0.0 0.0 0.00 0.00 0.00 74 1017.1
20260507042127 16 175 0.0 0.0 0.00 0.00 0.00 74 1017.1
20260507041625 16 175 0.0 0.0 0.00 0.00 0.00 73 1017.3
20260507041121 16 175 0.0 0.0 0.00 0.00 0.00 73 1017.3
20260507040618 17 175 0.0 0.0 0.00 0.00 0.00 72 1017.2
20260507040115 17 175 0.0 0.0 0.00 0.00 0.00 72 1017.1
20260507035611 17 210 1.6 1.6 0.00 0.00 0.00 71 1016.9
20260507035107 17 216 0.0 0.0 0.00 0.00 0.00 71 1017.0
20260507034604 17 216 0.0 0.0 0.00 0.00 0.00 70 1017.2
20260507034102 17 216 1.6 1.6 0.00 0.00 0.00 69 1016.9
20260507033600 17 216 0.0 0.0 0.00 0.00 0.00 69 1016.9
20260507033056 17 216 0.0 0.0 0.00 0.00 0.00 67 1017.0
20260507032554 17 216 0.0 0.0 0.00 0.00 0.00 67 1016.8
20260507032050 17 216 0.0 0.0 0.00 0.00 0.00 65 1016.7
20260507031546 17 217 0.0 0.0 0.00 0.00 0.00 65 1016.5
20260507031043 18 217 0.0 0.0 0.00 0.00 0.00 66 1016.7
20260507030540 18 217 0.0 0.0 0.00 0.00 0.00 63 1016.6
20260507030038 18 217 1.6 1.6 0.00 0.00 0.00 62 1016.6
20260507025535 18 218 0.0 0.0 0.00 0.00 0.00 62 1016.4
20260507025032 18 219 0.0 0.0 0.00 0.00 0.00 62 1016.3
20260507024530 18 219 1.6 1.6 0.00 0.00 0.00 62 1016.3
20260507024026 18 201 1.6 1.6 0.00 0.00 0.00 63 1016.1
20260507023522 18 201 1.6 1.6 0.00 0.00 0.00 63 1016.2
20260507023020 18 187 0.0 0.0 0.00 0.00 0.00 63 1016.3
20260507022517 19 189 1.6 1.6 0.00 0.00 0.00 62 1016.3
20260507022012 19 188 1.6 0.0 0.00 0.00 0.00 61 1016.1
20260507021508 19 218 0.0 0.0 0.00 0.00 0.00 61 1016.0
20260507021005 19 221 0.0 0.0 0.00 0.00 0.00 60 1016.2
20260507020502 20 209 1.6 1.6 0.00 0.00 0.00 59 1016.1
20260507015959 20 209 1.6 1.6 0.00 0.00 0.00 58 1016.0
20260507015458 20 225 0.0 0.0 0.00 0.00 0.00 57 1015.8
20260507014954 20 219 1.6 1.6 0.00 0.00 0.00 55 1015.9
20260507014451 20 194 0.0 0.0 0.00 0.00 0.00 52 1015.8
20260507013946 20 174 1.6 1.6 0.00 0.00 0.00 52 1015.8
20260507013443 21 174 1.6 1.6 0.00 0.00 0.00 53 1015.7
20260507012941 21 163 1.6 1.6 0.00 0.00 0.00 50 1015.8
20260507012437 21 159 1.6 1.6 0.00 0.00 0.00 49 1015.8
20260507011934 21 182 3.2 3.2 0.00 0.00 0.00 49 1015.5
20260507011432 21 197 1.6 1.6 0.00 0.00 0.00 51 1015.5
20260507010931 21 196 1.6 1.6 0.00 0.00 0.00 52 1015.6
20260507010427 21 164 0.0 1.6 0.00 0.00 0.00 52 1015.6
20260507005924 22 170 1.6 1.6 0.00 0.00 0.00 51 1015.7
20260507005421 22 246 0.0 0.0 0.00 0.00 0.00 52 1015.5
20260507004917 22 255 1.6 1.6 0.00 0.00 0.00 50 1015.5
20260507004414 22 181 0.0 0.0 0.00 0.00 0.00 51 1015.6
20260507003912 22 219 1.6 1.6 0.00 0.00 0.00 50 1015.7
20260507003407 22 198 3.2 3.2 0.00 0.00 0.00 48 1015.7
20260507002903 23 265 1.6 1.6 0.00 0.00 0.00 48 1015.6